• In Hungary
  • List of Countries
  • For 7 days
  • Water Temperature
  • Satellite Maps
  • Weather Map
  • News
  • Weather Widgets
  • user-avatar
    Login

    Hourly Weather Karay-Vasilevka

    Today, 15 November, Thursday

    Time Temperature Precipitation Wind Pressure Humidity
    00:00 -6°C° 0 mm 3 mps 762 mmHg 32%
    01:00 -7°C° 0 mm 3 mps 762 mmHg 32%
    02:00 -7°C° 0 mm 3 mps 762 mmHg 32%
    03:00 -7°C° 0 mm 3 mps 761 mmHg 32%
    04:00 -7°C° 0 mm 3 mps 762 mmHg 32%
    05:00 -7°C° 0 mm 3 mps 762 mmHg 32%
    06:00 -7°C° 0 mm 3 mps 762 mmHg 32%
    07:00 -7°C° 0 mm 3 mps 762 mmHg 31%
    08:00 -7°C° 0 mm 3 mps 762 mmHg 29%
    09:00 -6°C° 0 mm 3 mps 763 mmHg 28%
    10:00 -5°C° 0 mm 3 mps 763 mmHg 26%
    11:00 -4°C° 0 mm 3 mps 763 mmHg 25%
    12:00 -2°C° 0 mm 3 mps 763 mmHg 23%
    13:00 -2°C° 0 mm 3 mps 763 mmHg 23%
    14:00 -2°C° 0 mm 3 mps 763 mmHg 23%
    15:00 -1°C° 0 mm 3 mps 763 mmHg 24%
    16:00 -2°C° 0 mm 3 mps 763 mmHg 26%
    17:00 -4°C° 0 mm 3 mps 763 mmHg 28%
    18:00 -5°C° 0 mm 3 mps 764 mmHg 30%
    19:00 -5°C° 0 mm 3 mps 764 mmHg 30%
    20:00 -5°C° 0 mm 3 mps 764 mmHg 30%
    21:00 -6°C° 0 mm 3 mps 765 mmHg 30%
    22:00 -6°C° 0 mm 3 mps 765 mmHg 31%
    23:00 -6°C° 0 mm 3 mps 765 mmHg 31%

    Tomorrow, 16 November, Friday

    Time Temperature Precipitation Wind Pressure Humidity
    00:00 -6°C° 0 mm 3 mps 765 mmHg 31%
    01:00 -6°C° 0 mm 3 mps 765 mmHg 31%
    02:00 -6°C° 0 mm 3 mps 765 mmHg 30%
    03:00 -6°C° 0 mm 3 mps 766 mmHg 30%
    04:00 -7°C° 0 mm 3 mps 766 mmHg 29%
    05:00 -7°C° 0 mm 3 mps 766 mmHg 29%
    06:00 -7°C° 0 mm 3 mps 766 mmHg 28%
    07:00 -6°C° 0 mm 3 mps 766 mmHg 27%
    08:00 -6°C° 0 mm 3 mps 766 mmHg 25%
    09:00 -7°C° 0 mm 4 mps 767 mmHg 24%
    10:00 -4°C° 0 mm 4 mps 767 mmHg 23%
    11:00 -3°C° 0 mm 4 mps 767 mmHg 21%
    12:00 -2°C° 0 mm 4 mps 767 mmHg 19%
    13:00 -2°C° 0 mm 4 mps 766 mmHg 20%
    14:00 -1°C° 0 mm 3 mps 766 mmHg 21%
    15:00 -1°C° 0 mm 3 mps 766 mmHg 22%
    16:00 -2°C° 0 mm 3 mps 766 mmHg 24%
    17:00 -4°C° 0 mm 3 mps 766 mmHg 26%
    18:00 -4°C° 0 mm 3 mps 766 mmHg 27%
    19:00 -5°C° 0 mm 3 mps 766 mmHg 27%
    20:00 -5°C° 0 mm 3 mps 766 mmHg 27%
    21:00 -5°C° 0 mm 3 mps 766 mmHg 27%
    22:00 -5°C° 0 mm 3 mps 766 mmHg 27%
    23:00 -5°C° 0 mm 3 mps 766 mmHg 28%

    Day after tomorrow, 17 November, Saturday

    Time Temperature Precipitation Wind Pressure Humidity
    00:00 -5°C° 0 mm 3 mps 766 mmHg 28%
    01:00 -6°C° 0 mm 3 mps 766 mmHg 28%
    02:00 -6°C° 0 mm 3 mps 766 mmHg 28%
    03:00 -5°C° 0 mm 2 mps 766 mmHg 28%
    04:00 -5°C° 0 mm 2 mps 765 mmHg 28%
    05:00 -5°C° 0 mm 2 mps 765 mmHg 28%
    06:00 -6°C° 0 mm 3 mps 765 mmHg 28%
    07:00 -5°C° 0 mm 2 mps 765 mmHg 27%
    08:00 -5°C° 0 mm 2 mps 765 mmHg 26%
    09:00 -4°C° 0 mm 2 mps 764 mmHg 26%
    10:00 -3°C° 0 mm 2 mps 764 mmHg 23%
    11:00 -2°C° 0 mm 2 mps 764 mmHg 21%
    12:00 +1°C° 0 mm 2 mps 763 mmHg 19%
    13:00 +1°C° 0 mm 1 mps 763 mmHg 21%
    14:00 +1°C° 0 mm 1 mps 762 mmHg 22%
    15:00 +1°C° 0 mm 1 mps 762 mmHg 23%
    16:00 +1°C° 0 mm 1 mps 761 mmHg 24%
    17:00 0°C° 0 mm 1 mps 761 mmHg 24%
    18:00 -1°C° 0 mm 1 mps 760 mmHg 24%
    19:00 -1°C° 0 mm 1 mps 760 mmHg 24%
    20:00 -2°C° 0 mm 0 mps 759 mmHg 24%
    21:00 -2°C° 0 mm 0 mps 759 mmHg 23%
    22:00 -2°C° 0 mm 1 mps 758 mmHg 24%
    23:00 -2°C° 0 mm 1 mps 757 mmHg 24%

    18 November, Sunday

    Time Temperature Precipitation Wind Pressure Humidity
    00:00 -2°C° 0 mm 1 mps 757 mmHg 24%
    01:00 -2°C° 0 mm 1 mps 756 mmHg 25%
    02:00 -2°C° 0 mm 1 mps 756 mmHg 26%
    03:00 -5°C° 0 mm 2 mps 755 mmHg 27%
    04:00 -5°C° 0 mm 2 mps 754 mmHg 28%
    05:00 -5°C° 0 mm 2 mps 754 mmHg 29%
    06:00 -5°C° 0 mm 2 mps 753 mmHg 30%
    07:00 -5°C° 0 mm 2 mps 753 mmHg 30%
    08:00 -5°C° 0 mm 2 mps 752 mmHg 30%
    09:00 -4°C° 0 mm 2 mps 752 mmHg 31%
    10:00 -3°C° 0 mm 2 mps 752 mmHg 30%
    11:00 -4°C° 0 mm 3 mps 751 mmHg 29%
    12:00 -2°C° 0 mm 3 mps 751 mmHg 29%
    13:00 -2°C° 0 mm 2 mps 751 mmHg 31%
    14:00 -2°C° 0 mm 2 mps 751 mmHg 33%
    15:00 -2°C° 0 mm 2 mps 750 mmHg 35%
    16:00 -2°C° 0 mm 2 mps 750 mmHg 41%
    17:00 -3°C° 0 mm 2 mps 750 mmHg 46%
    18:00 -3°C° 0 mm 2 mps 750 mmHg 52%
    19:00 -3°C° 0 mm 2 mps 750 mmHg 59%
    20:00 -3°C° 0 mm 2 mps 750 mmHg 67%
    21:00 -3°C° 0 mm 2 mps 750 mmHg 74%
    22:00 -3°C° 0 mm 2 mps 750 mmHg 79%
    23:00 -3°C° 0 mm 2 mps 750 mmHg 84%

    19 November, Monday

    Time Temperature Precipitation Wind Pressure Humidity
    00:00 -4°C° 0 mm 2 mps 750 mmHg 89%
    01:00 -3°C° 0.1 mm 2 mps 750 mmHg 89%
    02:00 -3°C° 0.1 mm 2 mps 750 mmHg 88%
    03:00 -3°C° 0.1 mm 2 mps 751 mmHg 88%
    04:00 -3°C° 0.1 mm 2 mps 751 mmHg 85%
    05:00 -4°C° 0.1 mm 3 mps 751 mmHg 83%
    06:00 -4°C° 0.1 mm 3 mps 751 mmHg 80%
    07:00 -4°C° 0.1 mm 3 mps 752 mmHg 78%
    08:00 -4°C° 0.1 mm 3 mps 752 mmHg 75%
    09:00 -2°C° 0.1 mm 3 mps 752 mmHg 72%
    10:00 -2°C° 0.1 mm 3 mps 752 mmHg 71%
    11:00 -2°C° 0.1 mm 4 mps 753 mmHg 70%
    12:00 -2°C° 0.1 mm 4 mps 753 mmHg 68%
    13:00 -1°C° 0.1 mm 3 mps 753 mmHg 71%
    14:00 -1°C° 0.1 mm 3 mps 753 mmHg 74%
    15:00 -1°C° 0.1 mm 3 mps 754 mmHg 76%
    16:00 -1°C° 0.1 mm 3 mps 754 mmHg 80%
    17:00 -1°C° 0.1 mm 3 mps 754 mmHg 83%
    18:00 -3°C° 0.1 mm 4 mps 754 mmHg 87%
    19:00 -2°C° 0.1 mm 3 mps 754 mmHg 86%
    20:00 -2°C° 0.1 mm 3 mps 754 mmHg 85%
    21:00 -2°C° 0.1 mm 3 mps 755 mmHg 84%
    22:00 -4°C° 0.1 mm 3 mps 755 mmHg 82%
    23:00 -4°C° 0.1 mm 3 mps 755 mmHg 80%

    20 November, Tuesday

    Time Temperature Precipitation Wind Pressure Humidity
    00:00 -4°C° 0.1 mm 3 mps 755 mmHg 78%
    01:00 -4°C° 0.1 mm 3 mps 755 mmHg 77%
    02:00 -4°C° 0.1 mm 3 mps 755 mmHg 76%
    03:00 -4°C° 0.1 mm 3 mps 755 mmHg 75%
    04:00 -4°C° 0 mm 3 mps 755 mmHg 75%
    05:00 -4°C° 0 mm 3 mps 755 mmHg 74%
    06:00 -4°C° 0 mm 2 mps 755 mmHg 73%
    07:00 -3°C° 0 mm 2 mps 755 mmHg 72%
    08:00 -3°C° 0 mm 2 mps 755 mmHg 71%
    09:00 -3°C° 0 mm 2 mps 755 mmHg 70%
    10:00 -3°C° 0 mm 2 mps 755 mmHg 69%
    11:00 -2°C° 0 mm 2 mps 755 mmHg 68%
    12:00 -1°C° 0 mm 2 mps 755 mmHg 66%
    13:00 -1°C° 0 mm 2 mps 755 mmHg 68%
    14:00 -1°C° 0 mm 2 mps 754 mmHg 70%
    15:00 -1°C° 0 mm 2 mps 754 mmHg 72%
    16:00 -2°C° 0 mm 2 mps 754 mmHg 75%
    17:00 -3°C° 0 mm 2 mps 754 mmHg 77%
    18:00 -3°C° 0 mm 2 mps 753 mmHg 80%
    19:00 -3°C° 0 mm 2 mps 753 mmHg 82%
    20:00 -3°C° 0 mm 2 mps 753 mmHg 84%
    21:00 -3°C° 0 mm 2 mps 753 mmHg 86%
    22:00 -4°C° 0 mm 3 mps 752 mmHg 87%
    23:00 -4°C° 0 mm 3 mps 752 mmHg 88%
    Show more